Retour au catalogue

STARLINK-11268

ActifCommunicationsVLEO
NORAD 61055·PAYLOAD·🇺🇸 United States

Lancé Sep 13, 2024 depuis Vandenberg Space Force Base

Loading…

Prochains Passages (prochaines 24 heures)

TLE

FraisSource: CelesTrak SupGP

Époque: Sep 14, 2026, 22:20 UTC

1 61055C 24164F   26257.93104167 -.00011794  00000+0 -97146-4 0  2578
2 61055  53.1568  98.1123 0001038  84.2048 325.8891 15.69716875    11

Suivez STARLINK-11268 en temps réel avec AllMySat

Download on the App Store